User: anonymous   Login
Location: Unspecified
(0.0000°N, 0.0000°E)
Time: 07:09:54
(UTC+00:00)
Language:

Amsat-Oscar-8 - Orbit

View from above orbital plane
View from above orbital plane
View from above satellite
View from above satellite

Ground track
Ground track

The orbit data is extracted from the following two-line orbital elements,

1 10703U 78026B   17178.86517935 -.00000272 +00000-0 -15775-3 0  9993
2 10703 098.8874 141.1570 0006090 305.5843 087.4432 13.99224808005839
Epoch (UTC): 27 June 2017 20:45:51
Eccentricity: 0.0006090
inclination: 98.8874°
perigee height: 892 km
apogee height: 901 km
right ascension of ascending node: 141.1570°
argument of perigee: 305.5843°
revolutions per day: 13.99224808
mean anomaly at epoch: 87.4432°
orbit number at epoch: 583

The dashed part of the orbit path shows where the satellite is in the earth's shadow,  

DLR